Home   Weather   Pierre   Past weeks

Flag for USA Past Weather in Pierre, South Dakota, USA — Yesterday and Last 2 Weeks

Now
7 °F

Overcast.


Feels Like: -14 °F
Forecast: -3 / 6 °F
Wind: 24 mph from Northwest

Location: Pierre Regional Airport

Current Time: Dec 8, 2016 at 3:56:58 am

Latest Report: Dec 8, 2016 at 2:53 am


Visibility: 10 mi

Pressure: 30.65 "Hg

Humidity: 73%

Dew Point: 0 °F

Location of PierreLocation

Past Weather in Pierre — Graph

°F

Pierre Temperature Yesterday

Maximum temperature yesterday: 13 °F (at 1:53 pm)
Minimum temperature yesterday: 7 °F (at 5:53 am)
Average temperature yesterday: 10 °F

High & Low Weather Summary for the Past Weeks

 TemperatureHumidityPressure
High50 °F (Nov 26, 2:53 pm)100% (Nov 24, 6:53 am)30.63 "Hg (Nov 24, 6:53 am)
Low7 °F (Dec 7, 5:53 am)39% (Nov 26, 3:53 pm)28.97 "Hg (Nov 28, 5:01 am)
Average28 °F82%29.90 "Hg
* Reported Nov 23 1:53 am — Dec 8 1:53 am, Pierre, Weather by CustomWeather, © 2016

Note: Actual official high and low records may vary slightly from our data, if they occured in-between our weather recording intervals... More about our weather records

Advertising

Pierre Weather History for the Previous 24 Hours

Scroll right to see more
 ConditionsComfort  
Time TempWeatherWind HumidityBarometerVisibility
1:53 am
Thu, Dec 8
8 °FPassing clouds.25 mph69%30.63 "Hg10 mi
12:53 am8 °FLight snow. Passing clouds.31 mph72%30.62 "Hg10 mi
12:03 am7 °FMostly cloudy.30 mph73%30.50 "Hg10 mi
10:53 pm
Wed, Dec 7
7 °FLight snow. Overcast.25 mph70%30.60 "Hg9 mi
9:53 pm8 °FLight snow. Mostly cloudy.31 mph69%30.58 "Hg8 mi
8:53 pm9 °FPassing clouds.31 mph70%30.56 "Hg8 mi
7:53 pm9 °FPassing clouds.33 mph70%30.56 "Hg10 mi
6:53 pm11 °FOvercast.28 mph70%30.53 "Hg10 mi
5:53 pm11 °FOvercast.29 mph64%30.52 "Hg10 mi
4:53 pm12 °FPartly sunny.28 mph64%30.49 "Hg10 mi
3:53 pm13 °FOvercast.30 mph64%30.47 "Hg10 mi
2:53 pm13 °FPartly sunny.30 mph67%30.44 "Hg10 mi
1:53 pm13 °FOvercast.31 mph67%30.43 "Hg10 mi
12:53 pm12 °FOvercast.31 mph70%30.44 "Hg10 mi
11:53 am12 °FOvercast.26 mph67%30.44 "Hg10 mi
10:53 am10 °FOvercast.23 mph69%30.44 "Hg10 mi
9:53 am9 °FOvercast.21 mph73%30.42 "Hg10 mi
8:53 am8 °FMostly cloudy.14 mph76%30.38 "Hg10 mi
7:53 am8 °FOvercast.14 mph76%30.35 "Hg10 mi
6:53 am8 °FOvercast.25 mph72%30.34 "Hg10 mi
5:53 am7 °FOvercast.22 mph76%30.31 "Hg10 mi
4:53 am8 °FPassing clouds.21 mph76%30.30 "Hg10 mi
3:53 am8 °FPassing clouds.30 mph76%30.29 "Hg10 mi
3:02 am8 °FPassing clouds.21 mph76%30.17 "Hg10 mi
Weather by CustomWeather, © 2016

See weather overviewHow to use our weather pages